Location: Arrakis Observatory
(44.1122°N, 95.7153°W)
Time: 23:42:32
(UTC-06:00)

Daily predictions for brighter satellites

Satellite Brightness Start Highest point End
(mag) Time Altitude Azimuth Time Altitude Azimuth Time Altitude Azimuth
ATLAS 2AS CENTAUR R/B 3.1 17:28:30 10° NNW 17:36:26 58° NE 17:43:46 10° SE
Cosmos-2242 3.8 17:34:56 10° NNW 17:39:07 57° W 17:43:17 10° S
Lacrosse 5 rocket 3.3 17:35:29 10° WNW 17:39:34 38° SW 17:43:46 10° SSE
Cosmos 1726 3.2 17:37:33 10° NNE 17:40:36 24° ENE 17:43:38 10° SE
Cosmos 1867 3.8 17:37:33 10° SW 17:42:59 75° NW 17:48:29 10° NNE
METEOR-M 4.5 17:38:29 10° SE 17:43:31 44° ENE 17:48:35 10° N
Cosmos 2237 Rocket 4.2 17:39:39 10° W 17:44:01 22° NW 17:48:24 10° N
NOSS 2-1 (E) 3.8 17:43:50 10° S 17:47:18 40° ESE 17:51:10 10° NE
ALOS 3.1 17:43:37 10° SE 17:47:34 28° ENE 17:51:32 10° N
YAOGAN 1 3.0 17:44:25 10° SE 17:48:29 41° ENE 17:52:34 10° N
CZ-4 R/B 1.5 17:44:58 10° SSE 17:49:06 59° ENE 17:53:17 10° N
Cosmos 1674 2.6 17:55:20 10° S 17:59:04 69° E 18:02:48 10° NNE
TELKOM 3 3.7 17:57:34 10° W 17:59:36 37° NNW 18:01:21 13° NE
SL-8 Rocket 4.4 17:53:51 10° N 17:59:38 39° ENE 18:05:24 10° SE
Meteor 2-21 4.4 17:53:52 10° N 17:59:58 68° E 18:05:58 10° SSE
Meteor 2-1 Rocket 4.5 17:55:09 10° NNW 18:00:56 81° W 18:06:47 10° S
Cosmos 2263 4.4 17:55:51 10° NNW 18:01:30 51° ENE 18:07:05 10° SE
IRAS Rocket 4.3 17:56:21 10° SSE 18:01:53 89° WSW 18:07:30 10° NNW
Meteor 1-24 Rocket 4.4 17:57:46 10° SSW 18:03:21 60° WNW 18:09:12 10° N
Meteor 2-10 4.2 18:00:07 10° N 18:04:58 46° ENE 18:09:50 10° SSE
NOSS 3-3 (A) 4.1 18:01:13 10° SSW 18:07:11 64° ESE 18:13:44 10° NE
NOSS 3-3 (C) 4.1 18:01:20 10° SSW 18:07:17 64° ESE 18:13:50 10° NE
SL-14 R/B 4.2 18:05:21 10° SSE 18:08:46 28° E 18:12:12 10° NNE
USA 161 4.2 18:08:49 10° NW 18:09:54 12° WNW 18:10:57 10° W
Cosmos 2369 Rocket 2.2 18:08:29 10° NNW 18:14:11 85° ENE 18:19:53 10° SSE
Cosmos 1354 Rocket 4.2 18:09:27 10° NNW 18:14:46 79° WSW 18:20:05 10° SSE
Cosmos 2221 2.5 18:13:02 10° N 18:17:23 67° E 18:21:44 10° SSE
Cosmos 1300 3.0 18:16:48 10° N 18:20:27 41° ENE 18:24:05 10° SSE
SPOT 3 Rocket 3.7 18:16:42 10° SE 18:21:38 49° ENE 18:26:36 10° N
Lacrosse 4 Rocket 3.9 18:20:38 10° WNW 18:22:53 14° NW 18:25:08 10° N
Cosmos 1295 Rocket 4.4 18:18:04 10° N 18:24:12 85° E 18:30:20 10° S
Cosmos 1315 Rocket 3.7 18:20:55 10° SSE 18:24:14 27° E 18:26:06 19° NE
Ariane Rocket 4.0 18:19:38 10° S 18:24:32 49° W 18:29:28 10° NNW
COSMO-SKYMED 1 2.5 18:21:00 10° NNE 18:25:21 65° ESE 18:29:39 10° S
Cosmos 1626 3.6 18:23:18 10° SE 18:25:22 18° E 18:25:22 18° E
BREEZE M DEB (TANK) 4.3 18:24:28 10° SW 18:29:11 81° SSE 18:44:11 17° ENE
Tiangong 1 0.7 18:29:12 10° WSW 18:31:39 58° S 18:32:22 37° ESE
CZ-2C R/B 4.0 18:28:53 10° N 18:33:38 73° WNW 18:38:17 10° SSW
GEOS 3 Rocket 3.9 18:30:29 10° ESE 18:35:36 51° NE 18:40:48 10° NNW
Cosmos 1656 Rocket 4.1 18:30:47 10° NNW 18:35:52 38° ENE 18:40:59 10° SE
Cosmos 44 4.4 18:33:48 10° SSE 18:36:52 19° ESE 18:36:53 19° ESE
Cosmos 1943 Rocket 2.1 18:31:17 10° NNW 18:36:57 86° ENE 18:42:30 10° SSE
Cosmos 2366 rocket 4.0 18:33:50 10° N 18:40:03 60° E 18:46:09 10° SSE
ERS-2 2.2 18:36:56 10° SSE 18:40:31 54° ENE 18:44:09 10° N
Cosmos 1777 Rocket 4.4 18:40:25 10° N 18:45:19 38° ENE 18:49:04 16° SE
USA 215 4.4 18:46:54 18° NE 18:50:24 29° N 18:55:48 10° NW
Meteor 2-8 Rocket 4.4 18:44:38 10° S 18:50:41 66° E 18:56:47 10° NNE
Meteor 2-2 Rocket 4.2 18:46:32 10° N 18:52:18 62° ENE 18:57:53 10° SSE
FengYun 1-2 T 4.3 18:47:24 10° SSE 18:52:53 56° ENE 18:58:23 10° N
NOAA 12 4.1 18:48:11 10° SSE 18:53:25 81° WSW 18:58:42 10° NNW
Cosmos 44 Rocket 4.4 18:49:48 10° SSE 18:53:08 24° ESE 18:53:08 24° ESE
Cosmos 1076 Rocket 3.6 18:49:42 10° S 18:54:03 80° W 18:58:28 10° N
Cosmos 1400 Rocket 3.4 18:53:06 10° SSW 18:57:04 58° WNW 19:01:08 10° N
Cosmos 1328 Rocket 4.1 18:53:01 10° N 18:56:31 36° NE 18:56:31 36° NE
Cosmos 1328 3.7 18:53:16 10° S 18:57:14 66° E 18:59:26 25° NNE
Cosmos 2098 Rocket 3.8 18:52:53 10° N 18:57:29 44° E 19:03:10 10° SSE
Nadezhda 3 Rocket 4.5 18:51:51 10° SSE 18:57:30 36° E 19:01:57 16° NNE
H-2A R/B 2.6 18:54:34 10° SSE 18:58:18 63° ENE 19:02:06 10° N
FENGYUN 3A 4.0 18:55:01 10° S 19:00:19 66° WSW 19:05:40 10° NNW
Okean 3 Rocket 4.1 18:57:43 10° SSW 19:02:13 63° W 19:06:43 10° N
Cosmos 1766 Rocket 3.4 19:03:12 10° S 19:07:32 81° E 19:10:14 23° NNE
PKM 4.1 19:07:30 10° NW 19:09:32 42° N 19:09:32 42° N
Cosmos 968 Rocket 4.4 19:12:51 10° NNW 19:17:48 48° WSW 19:22:42 10° S
SL-24 R/B - RUBIN 2 3.4 19:14:27 10° NNW 19:19:03 72° NE 19:19:17 70° E
Cosmos 1943 4.3 19:14:02 10° SW 19:19:20 41° WNW 19:24:18 12° NNE
EO 1 Del DPAF 4.3 19:18:50 15° N 19:21:43 43° WNW 19:25:21 10° SW
ALOS 4.0 19:20:42 10° SSW 19:24:53 33° W 19:29:07 10° NNW
ATLAS 2AS CENTAUR R/B 4.3 19:20:05 10° NW 19:27:09 38° WSW 19:33:43 10° S
Envisat 4.3 19:40:45 27° N 19:40:45 27° N 19:43:02 10° N
Thor Agena Rocket 3.4 19:42:47 82° ENE 19:42:54 84° ESE 19:48:09 10° SSW
NOSS 3-4 (A) 3.8 19:43:02 10° NW 19:50:05 80° SW 19:53:33 35° SSE
NOSS 3-4 (C) 3.8 19:43:08 10° NW 19:50:11 81° SW 19:53:33 36° SSE
Cosmos 1626 4.3 19:57:48 10° SW 20:00:04 25° WSW 20:00:04 25° WSW
Cosmos 909 Rocket 4.0 20:00:43 10° NNW 20:07:11 77° N 20:07:11 77° N
USA 215 4.3 20:34:14 34° NNW 20:34:14 34° NNW 20:38:24 10° NW
